Location: *
(35.8942°N, 23.3025°E)
Time: 06:42:12
(UTC+00:00)

YAOGAN 6 - Pass Details

Date: 21 September 2021
Orbit: 462 x 502 km, 97.1° (Epoch: 21 October)

Event Time Altitude Azimuth Distance (km) Brightness Sun altitude
Rises 03:29:02 0° 12° (NNE) 2,522 6.5 -9.9°
Reaches altitude 10° 03:31:06 10° 13° (NNE) 1,634 5.5 -9.5°
Maximum altitude 03:34:36 80° 100° (E) 478 2.6 -8.8°
Drops below altitude 10° 03:38:03 10° 189° (S) 1,608 5.0 -8.1°
Sets 03:40:05 0° 190° (S) 2,476 6.0 -7.7°
